EZY11AM LGSK-LBSF

Flight info

Callsign EZY11AM
Flight time 0h 49m
Altitude 38000
Route IBIDI UL617 AGISA DCT EVIVI DCT VANET
Aircraft B736/M-SDE2E3FGHIRWXY/LB1

Departure

Time 2026-04-14 07:18
Airport Skiathos Island National Airport (LGSK)

Arrival

Time 2026-04-14 08:07
Airport Sofia Airport (LBSF)
Time Latitude Longitude Altitude Speed Heading
2026-04-14 06:51 39.17950 23.50254 38 ft 0 kts 289°
2026-04-14 07:10 39.17950 23.50256 38 ft 2 kts 289°
2026-04-14 07:11 39.17944 23.50276 38 ft 2 kts 289°
2026-04-14 07:11 39.17939 23.50296 38 ft 2 kts 289°
2026-04-14 07:11 39.17933 23.50316 35 ft 2 kts 289°
2026-04-14 07:11 39.17931 23.50337 37 ft 2 kts 238°
2026-04-14 07:12 39.17942 23.50349 37 ft 1 kts 201°
2026-04-14 07:12 39.17945 23.50351 37 ft 0 kts 200°
2026-04-14 07:14 39.17935 23.50346 36 ft 3 kts 199°
2026-04-14 07:14 39.17898 23.50331 39 ft 8 kts 199°
2026-04-14 07:14 39.17826 23.50299 38 ft 14 kts 199°
2026-04-14 07:14 39.17735 23.50263 38 ft 12 kts 179°
2026-04-14 07:15 39.17677 23.50337 39 ft 13 kts 156°
2026-04-14 07:15 39.17585 23.50311 40 ft 16 kts 199°
2026-04-14 07:15 39.17467 23.50259 36 ft 20 kts 199°
2026-04-14 07:15 39.17317 23.50192 28 ft 26 kts 198°
2026-04-14 07:16 39.17158 23.50121 20 ft 22 kts 199°
2026-04-14 07:16 39.17052 23.50046 13 ft 17 kts 212°
2026-04-14 07:16 39.17017 23.50088 10 ft 7 kts 59°
2026-04-14 07:16 39.17051 23.50089 14 ft 5 kts 339°
2026-04-14 07:17 39.17087 23.50091 17 ft 4 kts 17°
2026-04-14 07:17 39.17328 23.50198 30 ft 76 kts 19°
2026-04-14 07:17 39.18062 23.50522 68 ft 141 kts 19°
2026-04-14 07:18 39.19000 23.50938 832 ft 136 kts 21°
2026-04-14 07:18 39.19942 23.51365 1452 ft 151 kts 24°
2026-04-14 07:18 39.20935 23.51809 2223 ft 153 kts 22°
2026-04-14 07:18 39.21963 23.52262 2928 ft 159 kts 21°
2026-04-14 07:19 39.23041 23.52739 3548 ft 174 kts 21°
2026-04-14 07:19 39.24302 23.53302 3838 ft 208 kts 21°
2026-04-14 07:19 39.25710 23.53960 4366 ft 220 kts 27°
2026-04-14 07:19 39.26865 23.55227 4964 ft 223 kts 57°
2026-04-14 07:20 39.27571 23.57005 5625 ft 224 kts 73°
2026-04-14 07:20 39.27644 23.58959 6239 ft 219 kts 111°
2026-04-14 07:20 39.27145 23.60826 6918 ft 223 kts 115°
2026-04-14 07:20 39.26534 23.62679 7551 ft 225 kts 131°
2026-04-14 07:21 39.25361 23.63906 8367 ft 216 kts 164°
2026-04-14 07:21 39.24405 23.64162 8936 ft 211 kts 184°
2026-04-14 07:21 39.22971 23.63843 9774 ft 210 kts 200°
2026-04-14 07:21 39.21577 23.63234 10571 ft 213 kts 202°
2026-04-14 07:22 39.20180 23.62593 11384 ft 214 kts 204°
2026-04-14 07:22 39.18946 23.61570 12185 ft 213 kts 229°
2026-04-14 07:22 39.18184 23.59930 13028 ft 216 kts 250°
2026-04-14 07:22 39.17950 23.58001 13896 ft 220 kts 263°
2026-04-14 07:23 39.18022 23.56008 14634 ft 229 kts 281°
2026-04-14 07:23 39.18783 23.54158 15393 ft 243 kts 306°
2026-04-14 07:23 39.20233 23.52827 15827 ft 278 kts 334°
2026-04-14 07:23 39.22253 23.52330 16058 ft 312 kts 348°
2026-04-14 07:24 39.24503 23.52076 16420 ft 333 kts 351°
2026-04-14 07:24 39.26846 23.51858 17164 ft 341 kts 351°
2026-04-14 07:24 39.29189 23.51631 18039 ft 343 kts 351°
2026-04-14 07:24 39.31583 23.51380 18846 ft 347 kts 350°
2026-04-14 07:25 39.34002 23.51107 19636 ft 350 kts 349°
2026-04-14 07:25 39.36435 23.50822 20445 ft 352 kts 348°
2026-04-14 07:25 39.38878 23.50531 21251 ft 354 kts 348°
2026-04-14 07:25 39.41344 23.50220 22044 ft 356 kts 345°
2026-04-14 07:26 39.43736 23.49413 22487 ft 362 kts 333°
2026-04-14 07:26 39.46157 23.48235 22642 ft 381 kts 332°
2026-04-14 07:26 39.48672 23.46939 22996 ft 395 kts 332°
2026-04-14 07:26 39.51247 23.45624 23672 ft 399 kts 332°
2026-04-14 07:27 39.53846 23.44326 24350 ft 401 kts 332°
2026-04-14 07:27 39.56467 23.43038 24971 ft 404 kts 332°
2026-04-14 07:27 39.59114 23.41749 25552 ft 409 kts 332°
2026-04-14 07:27 39.61790 23.40449 26131 ft 412 kts 332°
2026-04-14 07:28 39.64492 23.39137 26698 ft 416 kts 331°
2026-04-14 07:28 39.67219 23.37812 27275 ft 420 kts 331°
2026-04-14 07:28 39.69967 23.36473 27817 ft 423 kts 331°
2026-04-14 07:28 39.72832 23.35386 28338 ft 437 kts 340°
2026-04-14 07:29 39.75901 23.34882 28851 ft 452 kts 350°
2026-04-14 07:29 39.79039 23.34941 29359 ft 460 kts 354°
2026-04-14 07:29 39.82256 23.35154 29833 ft 466 kts 355°
2026-04-14 07:29 39.85509 23.35421 30280 ft 471 kts 355°
2026-04-14 07:30 39.88789 23.35694 30669 ft 474 kts 355°
2026-04-14 07:30 39.92096 23.35955 31070 ft 477 kts 355°
2026-04-14 07:30 39.95420 23.36198 31467 ft 479 kts 355°
2026-04-14 07:30 39.98763 23.36426 31840 ft 482 kts 355°
2026-04-14 07:31 40.02121 23.36644 32195 ft 484 kts 355°
2026-04-14 07:31 40.05485 23.36857 32638 ft 484 kts 355°
2026-04-14 07:31 40.08844 23.37071 33173 ft 482 kts 355°
2026-04-14 07:31 40.12193 23.37284 33690 ft 481 kts 355°
2026-04-14 07:32 40.15535 23.37496 34134 ft 481 kts 355°
2026-04-14 07:32 40.18874 23.37707 34502 ft 480 kts 355°
2026-04-14 07:32 40.22208 23.37918 34922 ft 478 kts 355°
2026-04-14 07:32 40.25484 23.38128 35363 ft 476 kts 355°
2026-04-14 07:33 40.28782 23.38339 35779 ft 474 kts 355°
2026-04-14 07:33 40.32073 23.38549 36157 ft 473 kts 355°
2026-04-14 07:33 40.35360 23.38758 36522 ft 472 kts 355°
2026-04-14 07:34 40.45169 23.39384 37696 ft 468 kts 356°
2026-04-14 07:34 40.48415 23.39592 38047 ft 467 kts 356°
2026-04-14 07:34 40.51664 23.39798 38238 ft 469 kts 356°
2026-04-14 07:35 40.54938 23.40005 38216 ft 472 kts 356°
2026-04-14 07:35 40.61502 23.40427 38213 ft 469 kts 356°
2026-04-14 07:36 40.67985 23.40849 38230 ft 465 kts 356°
2026-04-14 07:36 40.74396 23.41262 38233 ft 465 kts 356°
2026-04-14 07:37 40.80863 23.41678 38232 ft 464 kts 357°
2026-04-14 07:37 40.87334 23.42097 38227 ft 464 kts 357°
2026-04-14 07:38 40.93793 23.42515 38226 ft 464 kts 357°
2026-04-14 07:38 41.00209 23.42933 38223 ft 464 kts 357°
2026-04-14 07:39 41.06658 23.43352 38231 ft 464 kts 357°
2026-04-14 07:39 41.13120 23.43774 38225 ft 464 kts 357°
2026-04-14 07:40 41.19533 23.44193 38224 ft 464 kts 357°
2026-04-14 07:40 41.25997 23.44616 37982 ft 468 kts 357°
2026-04-14 07:40 41.29267 23.44829 37379 ft 469 kts 357°
2026-04-14 07:41 41.32524 23.45045 36719 ft 468 kts 357°
2026-04-14 07:41 41.35774 23.45260 36047 ft 468 kts 356°
2026-04-14 07:41 41.39030 23.45474 35306 ft 469 kts 356°
2026-04-14 07:41 41.42292 23.45567 34492 ft 469 kts 352°
2026-04-14 07:42 41.45554 23.45459 33804 ft 466 kts 350°
2026-04-14 07:42 41.48775 23.45274 33181 ft 461 kts 349°
2026-04-14 07:42 41.51968 23.45068 32636 ft 457 kts 349°
2026-04-14 07:42 41.55130 23.44868 32112 ft 452 kts 349°
2026-04-14 07:43 41.58227 23.44685 31602 ft 448 kts 349°
2026-04-14 07:43 41.61331 23.44514 31091 ft 445 kts 350°
2026-04-14 07:43 41.64423 23.44352 30608 ft 441 kts 350°
2026-04-14 07:43 41.67485 23.44195 30076 ft 439 kts 350°
2026-04-14 07:44 41.70523 23.44040 29517 ft 436 kts 350°
2026-04-14 07:44 41.73552 23.43887 28969 ft 432 kts 351°
2026-04-14 07:44 41.76538 23.43738 28470 ft 427 kts 351°
2026-04-14 07:44 41.79452 23.43592 27969 ft 422 kts 351°
2026-04-14 07:45 41.82369 23.43444 27465 ft 417 kts 351°
2026-04-14 07:45 41.85263 23.43297 26986 ft 413 kts 351°
2026-04-14 07:45 41.88123 23.43151 26505 ft 410 kts 352°
2026-04-14 07:45 41.90964 23.43005 26028 ft 407 kts 352°
2026-04-14 07:46 41.93783 23.42860 25552 ft 404 kts 352°
2026-04-14 07:46 41.96580 23.42717 25087 ft 401 kts 352°
2026-04-14 07:46 41.99358 23.42575 24612 ft 398 kts 353°
2026-04-14 07:46 42.02115 23.42434 24170 ft 395 kts 353°
2026-04-14 07:47 42.04858 23.42293 23666 ft 394 kts 353°
2026-04-14 07:47 42.07585 23.42153 23152 ft 391 kts 353°
2026-04-14 07:47 42.10301 23.42014 22653 ft 388 kts 353°
2026-04-14 07:47 42.12994 23.41876 22183 ft 385 kts 353°
2026-04-14 07:48 42.15663 23.41740 21730 ft 382 kts 353°
2026-04-14 07:48 42.18304 23.41605 21292 ft 378 kts 353°
2026-04-14 07:48 42.20927 23.41469 20854 ft 376 kts 353°
2026-04-14 07:48 42.23497 23.41337 20415 ft 373 kts 354°
2026-04-14 07:49 42.26077 23.41204 19988 ft 370 kts 354°
2026-04-14 07:49 42.28594 23.40922 19542 ft 363 kts 343°
2026-04-14 07:49 42.30877 23.39703 19127 ft 351 kts 324°
2026-04-14 07:49 42.32863 23.37836 18717 ft 346 kts 319°
2026-04-14 07:50 42.34782 23.35887 18234 ft 344 kts 319°
2026-04-14 07:50 42.36688 23.33928 17762 ft 341 kts 319°
2026-04-14 07:50 42.38575 23.31998 17313 ft 338 kts 319°
2026-04-14 07:50 42.40428 23.30118 16905 ft 335 kts 319°
2026-04-14 07:51 42.42296 23.28235 16469 ft 332 kts 319°
2026-04-14 07:51 42.44142 23.26378 16054 ft 330 kts 319°
2026-04-14 07:51 42.45979 23.24533 15647 ft 328 kts 319°
2026-04-14 07:51 42.47807 23.22699 15238 ft 326 kts 320°
2026-04-14 07:52 42.49630 23.20872 14813 ft 325 kts 319°
2026-04-14 07:52 42.51441 23.19050 14412 ft 323 kts 320°
2026-04-14 07:52 42.53246 23.17235 13958 ft 323 kts 320°
2026-04-14 07:52 42.55058 23.15412 13417 ft 324 kts 320°
2026-04-14 07:53 42.56858 23.13601 13226 ft 321 kts 320°
2026-04-14 07:53 42.58636 23.11812 13187 ft 314 kts 320°
2026-04-14 07:53 42.60347 23.10090 12888 ft 302 kts 320°
2026-04-14 07:53 42.61991 23.08357 12502 ft 300 kts 311°
2026-04-14 07:54 42.63120 23.06088 12308 ft 285 kts 289°
2026-04-14 07:54 42.63562 23.03533 12172 ft 272 kts 273°
2026-04-14 07:54 42.63703 23.01014 12051 ft 263 kts 271°
2026-04-14 07:54 42.63823 22.98568 11913 ft 255 kts 271°
2026-04-14 07:55 42.63943 22.96205 11798 ft 247 kts 271°
2026-04-14 07:55 42.64063 22.93888 11566 ft 244 kts 271°
2026-04-14 07:55 42.64187 22.91595 11305 ft 242 kts 272°
2026-04-14 07:55 42.64311 22.89355 11070 ft 234 kts 272°
2026-04-14 07:56 42.64433 22.87160 10663 ft 231 kts 272°
2026-04-14 07:56 42.64552 22.85021 10390 ft 223 kts 271°
2026-04-14 07:56 42.64666 22.82947 10169 ft 219 kts 271°
2026-04-14 07:56 42.64831 22.80900 9909 ft 220 kts 283°
2026-04-14 07:57 42.65635 22.79129 9669 ft 226 kts 315°
2026-04-14 07:57 42.67016 22.78178 9551 ft 229 kts 345°
2026-04-14 07:57 42.68638 22.78079 9362 ft 239 kts
2026-04-14 07:57 42.70316 22.78262 9124 ft 245 kts
2026-04-14 07:58 42.71871 22.79201 8863 ft 248 kts 40°
2026-04-14 07:58 42.72853 22.81075 8610 ft 244 kts 73°
2026-04-14 07:58 42.73066 22.83316 8409 ft 236 kts 94°
2026-04-14 07:58 42.72963 22.85519 8172 ft 232 kts 98°
2026-04-14 07:59 42.72820 22.87700 7946 ft 231 kts 99°
2026-04-14 07:59 42.72669 22.89872 7732 ft 231 kts 99°
2026-04-14 07:59 42.72531 22.92048 7512 ft 230 kts 99°
2026-04-14 07:59 42.72400 22.94218 7279 ft 230 kts 98°
2026-04-14 08:00 42.72273 22.96381 7075 ft 228 kts 99°
2026-04-14 08:00 42.72150 22.98538 6895 ft 231 kts 99°
2026-04-14 08:00 42.72056 23.00694 6649 ft 227 kts 97°
2026-04-14 08:00 42.71960 23.02794 6405 ft 217 kts 98°
2026-04-14 08:01 42.71868 23.04818 6188 ft 210 kts 98°
2026-04-14 08:01 42.71753 23.06763 5948 ft 203 kts 99°
2026-04-14 08:01 42.71642 23.08654 5716 ft 198 kts 98°
2026-04-14 08:01 42.71547 23.10508 5515 ft 194 kts 99°
2026-04-14 08:02 42.71446 23.12356 5331 ft 198 kts 99°
2026-04-14 08:02 42.71328 23.14231 5169 ft 201 kts 98°
2026-04-14 08:02 42.71209 23.16136 4916 ft 200 kts 98°
2026-04-14 08:02 42.71092 23.17974 4677 ft 193 kts 98°
2026-04-14 08:03 42.70991 23.19734 4447 ft 180 kts 98°
2026-04-14 08:03 42.70887 23.21361 4290 ft 168 kts 98°
2026-04-14 08:03 42.70788 23.22930 4138 ft 165 kts 98°
2026-04-14 08:03 42.70695 23.24445 4039 ft 159 kts 97°
2026-04-14 08:04 42.70597 23.25951 3875 ft 162 kts 97°
2026-04-14 08:04 42.70516 23.27452 3678 ft 152 kts 95°
2026-04-14 08:04 42.70436 23.28831 3463 ft 141 kts 97°
2026-04-14 08:04 42.70340 23.30119 3219 ft 136 kts 96°
2026-04-14 08:05 42.70279 23.31376 2979 ft 129 kts 95°
2026-04-14 08:05 42.70248 23.32561 2817 ft 124 kts 95°
2026-04-14 08:05 42.70144 23.33747 2686 ft 129 kts 99°
2026-04-14 08:05 42.70036 23.34951 2506 ft 125 kts 95°
2026-04-14 08:06 42.69984 23.36109 2317 ft 121 kts 94°
2026-04-14 08:06 42.69919 23.37223 2159 ft 121 kts 93°
2026-04-14 08:06 42.69848 23.38374 2009 ft 126 kts 95°
2026-04-14 08:06 42.69781 23.39574 1847 ft 128 kts 95°
2026-04-14 08:07 42.69707 23.40745 1748 ft 115 kts 94°
2026-04-14 08:07 42.69655 23.41640 1754 ft 73 kts 94°
2026-04-14 08:07 42.69619 23.42229 1752 ft 57 kts 95°
2026-04-14 08:07 42.69511 23.42696 1750 ft 44 kts 124°
2026-04-14 08:08 42.69408 23.42712 1749 ft 17 kts 250°
2026-04-14 08:08 42.69411 23.42557 1750 ft 16 kts 274°
2026-04-14 08:08 42.69420 23.42391 1752 ft 20 kts 274°
2026-04-14 08:08 42.69432 23.42178 1752 ft 25 kts 274°
2026-04-14 08:09 42.69445 23.41964 1752 ft 24 kts 274°
2026-04-14 08:09 42.69459 23.41708 1752 ft 29 kts 274°
2026-04-14 08:09 42.69473 23.41465 1752 ft 22 kts 274°
2026-04-14 08:09 42.69484 23.41272 1752 ft 16 kts 264°
2026-04-14 08:10 42.69399 23.41200 1752 ft 15 kts 191°
2026-04-14 08:10 42.69285 23.41169 1749 ft 19 kts 191°
2026-04-14 08:10 42.69197 23.41145 1743 ft 20 kts 191°
2026-04-14 08:10 42.69104 23.41001 1747 ft 20 kts 253°
2026-04-14 08:11 42.69074 23.40874 1748 ft 23 kts 252°
2026-04-14 08:11 42.69085 23.40658 1750 ft 25 kts 288°
2026-04-14 08:11 42.69111 23.40518 1752 ft 3 kts 252°
2026-04-14 08:11 42.69059 23.40494 1752 ft 10 kts 196°
2026-04-14 08:12 42.69048 23.40490 1752 ft 0 kts 196°